DB0WT-13 Weather Reports


time (UTC)temp
F
wind
direction
speed
knots
gust
knots
rain 1hr
in
rain 24hr
in
rain mn
in
humidity
%
barometer
mb
20260902093011 72 0.0 0.0 0.00 0.00 0.00 99 1023.2
20260902091512 70 0.0 0.0 0.00 0.00 0.00 99 1023.3
20260902090012 67 0.0 0.0 0.00 0.00 0.00 99 1023.5
20260902084512 64 0.0 0.0 0.00 0.00 0.00 99 1023.5
20260902083012 67 0.0 0.0 0.00 0.00 0.00 99 1023.4
20260902081512 75 0.0 0.0 0.00 0.00 0.00 64 1023.0
20260902080011 79 0.0 0.0 0.00 0.00 0.00 56 1022.8
20260902074512 83 0.0 0.0 0.00 0.00 0.00 53 1022.6
20260902073013 74 0.0 0.0 0.00 0.00 0.00 99 1022.9
20260902071512 64 0.0 0.0 0.00 0.00 0.00 99 1023.2
20260902070012 70 0.0 0.0 0.00 0.00 0.00 99 1023.0
20260902064512 66 0.0 0.0 0.00 0.00 0.00 99 1022.9
20260902063012 69 0.0 0.0 0.00 0.00 0.00 96 1023.1
20260902061512 77 0.0 0.0 0.00 0.00 0.00 92 1022.9
20260902060012 69 0.0 0.0 0.00 0.00 0.00 99 1023.5
20260902054512 61 0.0 0.0 0.00 0.00 0.00 99 1025.8
20260902053012 56 0.0 0.0 0.00 0.00 0.00 99 1026.9
20260902051512 54 0.0 0.0 0.00 0.00 0.00 99 1029.4
20260902050012 51 0.0 0.0 0.00 0.00 0.00 99 1029.5
20260902044513 51 0.0 0.0 0.00 0.00 0.00 99 1029.6
20260902043012 51 0.0 0.0 0.00 0.00 0.00 99 1029.3
20260902041512 51 0.0 0.0 0.00 0.00 0.00 99 1028.8
20260902040012 51 0.0 0.0 0.00 0.00 0.00 99 1028.4
20260902034512 51 0.0 0.0 0.00 0.00 0.00 99 1028.3
20260902033012 51 0.0 0.0 0.00 0.00 0.00 99 1028.3
20260902031512 52 0.0 0.0 0.00 0.00 0.00 99 1028.0
20260902030011 52 0.0 0.0 0.00 0.00 0.00 99 1028.0
20260902024512 52 0.0 0.0 0.00 0.00 0.00 99 1027.8
20260902023012 52 0.0 0.0 0.00 0.00 0.00 99 1027.4
20260902021512 53 0.0 0.0 0.00 0.00 0.00 99 1027.6
20260902020012 52 0.0 0.0 0.00 0.00 0.00 99 1027.4
20260902014512 53 0.0 0.0 0.00 0.00 0.00 99 1027.2
20260902013011 53 0.0 0.0 0.00 0.00 0.00 99 1027.1
20260902011512 53 0.0 0.0 0.00 0.00 0.00 99 1027.1
20260902010012 54 0.0 0.0 0.00 0.00 0.00 99 1026.6
20260902004512 54 0.0 0.0 0.00 0.00 0.00 99 1026.4
20260902003012 54 0.0 0.0 0.00 0.00 0.00 99 1026.8
20260902001511 54 0.0 0.0 0.00 0.00 0.00 99 1026.9
20260902000012 54 0.0 0.0 0.00 0.00 0.00 99 1026.9
20260901234512 55 0.0 0.0 0.00 0.00 0.00 99 1026.8
20260901233012 54 0.0 0.0 0.00 0.00 0.00 99 1027.1
20260901231512 54 0.0 0.0 0.00 0.00 0.00 99 1026.8
20260901230012 55 0.0 0.0 0.00 0.00 0.00 99 1026.8
20260901224512 55 0.0 0.0 0.00 0.00 0.00 99 1026.5
20260901223012 56 0.0 0.0 0.00 0.00 0.00 99 1026.4
20260901221512 56 0.0 0.0 0.00 0.00 0.00 99 1026.7
20260901220012 56 0.0 0.0 0.00 0.00 0.00 99 1026.1
20260901214512 57 0.0 0.0 0.00 0.00 0.00 99 1025.5
20260901213011 57 0.0 0.0 0.00 0.00 0.00 99 1025.1
20260901211513 57 0.0 0.0 0.00 0.00 0.00 99 1025.4
20260901210014 57 0.0 0.0 0.00 0.00 0.00 99 1025.2
20260901204511 58 0.0 0.0 0.00 0.00 0.00 99 1024.8
20260901203014 59 0.0 0.0 0.00 0.00 0.00 99 1024.5
20260901201512 60 0.0 0.0 0.00 0.00 0.00 99 1024.1
20260901200012 60 0.0 0.0 0.00 0.00 0.00 99 1023.8
20260901194512 60 0.0 0.0 0.00 0.00 0.00 99 1023.9
20260901193011 61 0.0 0.0 0.00 0.00 0.00 99 1023.8
20260901191511 61 0.0 0.0 0.00 0.00 0.00 99 1023.5
20260901190012 62 0.0 0.0 0.00 0.00 0.00 99 1023.1
20260901184512 63 0.0 0.0 0.00 0.00 0.00 99 1022.9
20260901183011 64 0.0 0.0 0.00 0.00 0.00 99 1022.8
20260901181511 65 0.0 0.0 0.00 0.00 0.00 99 1022.4
20260901180012 67 0.0 0.0 0.00 0.00 0.00 99 1022.4
20260901174512 70 0.0 0.0 0.00 0.00 0.00 99 1022.1
20260901173012 73 0.0 0.0 0.00 0.00 0.00 85 1022.1
20260901171511 76 0.0 0.0 0.00 0.00 0.00 65 1022.1
20260901170012 76 0.0 0.0 0.00 0.00 0.00 61 1022.1
20260901164512 76 0.0 0.0 0.00 0.00 0.00 55 1022.0
20260901163012 78 0.0 0.0 0.00 0.00 0.00 49 1022.0
20260901161512 79 0.0 0.0 0.00 0.00 0.00 47 1021.9
20260901160013 79 0.0 0.0 0.00 0.00 0.00 45 1021.8
20260901154512 80 0.0 0.0 0.00 0.00 0.00 44 1021.9
20260901153012 78 0.0 0.0 0.00 0.00 0.00 48 1022.0
20260901151513 79 0.0 0.0 0.00 0.00 0.00 46 1021.8
20260901150013 77 0.0 0.0 0.00 0.00 0.00 49 1021.9
20260901144511 79 0.0 0.0 0.00 0.00 0.00 52 1021.9
20260901143011 77 0.0 0.0 0.00 0.00 0.00 53 1022.0
20260901141512 79 0.0 0.0 0.00 0.00 0.00 52 1022.0
20260901140012 77 0.0 0.0 0.00 0.00 0.00 54 1022.3
20260901134512 77 0.0 0.0 0.00 0.00 0.00 57 1022.4
20260901133012 76 0.0 0.0 0.00 0.00 0.00 58 1022.4
20260901131512 75 0.0 0.0 0.00 0.00 0.00 63 1022.5
20260901130012 74 0.0 0.0 0.00 0.00 0.00 71 1022.6
20260901124511 74 0.0 0.0 0.00 0.00 0.00 79 1022.8
20260901123012 74 0.0 0.0 0.00 0.00 0.00 89 1022.9
20260901121511 71 0.0 0.0 0.00 0.00 0.00 99 1023.0
20260901120012 70 0.0 0.0 0.00 0.00 0.00 99 1023.2
20260901114512 71 0.0 0.0 0.00 0.00 0.00 99 1023.2
20260901113012 71 0.0 0.0 0.00 0.00 0.00 99 1023.1
20260901111512 70 0.0 0.0 0.00 0.00 0.00 99 1023.3
20260901110012 70 0.0 0.0 0.00 0.00 0.00 99 1023.5
20260901104512 69 0.0 0.0 0.00 0.00 0.00 99 1023.5
20260901103012 68 0.0 0.0 0.00 0.00 0.00 99 1023.6
20260901101512 70 0.0 0.0 0.00 0.00 0.00 99 1023.6
20260901100012 76 0.0 0.0 0.00 0.00 0.00 86 1023.5
20260901094512 71 0.0 0.0 0.00 0.00 0.00 99 1023.6